Location: Beccas
(43.4309°N, 0.1528°E)
Time: 01:21:48
(UTC+00:00)

Vanguard 3 - Visible Passes

Search period start: 27 May 2022 00:00
Search period end: 06 June 2022 00:00
Orbit: 508 x 3258 km, 33.3° (Epoch: 26 May)

Date Brightness Start Highest point End Pass type
(mag) Time Alt. Az. Time Alt. Az. Time Alt. Az.
27 May 8.0 02:17:45 23° S 02:17:45 23° S 02:21:41 10° SE visible
28 May 8.3 03:12:10 15° SW 03:14:10 19° S 03:18:29 10° SE visible
29 May 8.7 02:02:08 15° SSE 02:02:08 15° SSE 02:03:36 10° SE visible
30 May 8.4 02:56:45 15° SSW 02:56:51 15° S 02:59:49 10° SSE visible
01 Jun 8.7 21:01:01 10° SSW 21:03:29 14° S 21:03:29 14° S visible
02 Jun 8.8 21:57:00 10° SW 21:58:18 14° SSW 21:58:18 14° SSW visible
03 Jun 8.4 20:42:07 10° SSW 20:46:29 18° S 20:48:26 15° SE visible
04 Jun 8.1 21:38:46 10° SW 21:43:01 23° S 21:43:01 23° S visible
05 Jun 8.5 20:23:21 10° SW 20:29:06 23° S 20:32:58 11° ESE visible
05 Jun 8.8 22:36:04 10° WSW 22:37:31 15° SW 22:37:31 15° SW visible
